User: anonymous   Login
Location: Unspecified
(0.0000°N, 0.0000°E)
Time: 20:54:07
(UTC+00:00)
Language:

NAVSTAR 64 (USA 206) - Orbit

View from above orbital plane
View from above orbital plane
View from above satellite
View from above satellite

Ground track
Ground track

The orbit data is extracted from the following two-line orbital elements,

1 35752U 09043A   16268.51678553 -.00000046  00000-0  00000+0 0  9991
2 35752  54.2277 170.2906 0046654  26.9661 181.0409  2.00571453 52086
Epoch (UTC): 24 September 2016 12:24:10
Eccentricity: 0.0046654
inclination: 54.2277°
perigee height: 20057 km
apogee height: 20305 km
right ascension of ascending node: 170.2906°
argument of perigee: 26.9661°
revolutions per day: 2.00571453
mean anomaly at epoch: 181.0409°
orbit number at epoch: 5208

The dashed part of the orbit path shows where the satellite is in the earth's shadow,  

DLR